Time,TemperatureF,DewpointF,PressureIn,WindDirection,WindDirectionDegrees,WindSpeedMPH,WindSpeedGustMPH,Humidity,HourlyPrecipIn,Conditions,Clouds,dailyrainin,SoftwareType,DateUTC
2013-04-30 00:00:00,50.0,34.0,30.29,SW,225,0.0,0.0,54,0.00,,CLR,0.00,VWS V14.01,2013-04-30 04:00:00,
2013-04-30 00:10:00,49.0,31.7,30.29,SW,225,0.0,0.0,51,0.00,,CLR,0.00,VWS V14.01,2013-04-30 04:10:00,
2013-04-30 00:20:00,49.0,34.5,30.28,SW,225,0.0,0.0,57,0.00,,CLR,0.00,VWS V14.01,2013-04-30 04:20:00,
2013-04-30 00:30:00,49.0,34.0,30.28,SW,225,0.0,0.0,56,0.00,,CLR,0.00,VWS V14.01,2013-04-30 04:30:00,
2013-04-30 00:40:00,48.0,33.1,30.28,SW,225,0.0,0.0,56,0.00,,CLR,0.00,VWS V14.01,2013-04-30 04:40:00,
2013-04-30 00:50:00,48.0,35.2,30.28,SW,225,0.0,0.0,61,0.00,,CLR,0.00,VWS V14.01,2013-04-30 04:50:00,
2013-04-30 01:00:00,47.0,33.4,30.28,SW,225,0.0,0.0,59,0.00,,CLR,0.00,VWS V14.01,2013-04-30 05:00:00,
2013-04-30 01:10:00,46.0,32.9,30.27,SW,225,0.0,0.0,60,0.00,,CLR,0.00,VWS V14.01,2013-04-30 05:10:00,
2013-04-30 01:20:00,45.0,33.6,30.27,SW,225,0.0,0.0,64,0.00,,CLR,0.00,VWS V14.01,2013-04-30 05:20:00,
2013-04-30 01:30:00,45.0,34.7,30.27,SW,225,0.0,0.0,67,0.00,,CLR,0.00,VWS V14.01,2013-04-30 05:30:00,
2013-04-30 01:40:00,44.0,34.5,30.27,SW,225,0.0,0.0,69,0.00,,CLR,0.00,VWS V14.01,2013-04-30 05:40:00,
2013-04-30 01:50:00,44.0,34.1,30.27,SW,225,0.0,0.0,68,0.00,,CLR,0.00,VWS V14.01,2013-04-30 05:50:00,
2013-04-30 02:00:00,43.0,33.2,30.27,SW,225,0.0,0.0,68,0.00,,CLR,0.00,VWS V14.01,2013-04-30 06:00:00,
2013-04-30 02:10:00,43.0,33.2,30.27,SW,225,0.0,0.0,68,0.00,,CLR,0.00,VWS V14.01,2013-04-30 06:10:00,
2013-04-30 02:20:00,43.0,32.8,30.27,SW,225,0.0,0.0,67,0.00,,CLR,0.00,VWS V14.01,2013-04-30 06:20:00,
2013-04-30 02:30:00,42.0,32.2,30.27,SW,225,0.0,0.0,68,0.00,,CLR,0.00,VWS V14.01,2013-04-30 06:30:00,
2013-04-30 02:40:00,42.0,32.6,30.27,SW,225,0.0,0.0,69,0.00,,CLR,0.00,VWS V14.01,2013-04-30 06:40:00,
2013-04-30 02:50:00,42.0,33.6,30.28,SW,225,0.0,0.0,72,0.00,,CLR,0.00,VWS V14.01,2013-04-30 06:50:00,
2013-04-30 03:00:00,42.0,34.3,30.28,SW,225,0.0,0.0,74,0.00,,CLR,0.00,VWS V14.01,2013-04-30 07:00:00,
2013-04-30 03:10:00,41.0,33.7,30.28,SW,225,0.0,0.0,75,0.00,,CLR,0.00,VWS V14.01,2013-04-30 07:10:00,
2013-04-30 03:20:00,41.0,34.7,30.28,SW,225,0.0,0.0,78,0.00,,CLR,0.00,VWS V14.01,2013-04-30 07:20:00,
2013-04-30 03:30:00,41.0,34.7,30.28,SW,225,0.0,0.0,78,0.00,,CLR,0.00,VWS V14.01,2013-04-30 07:30:00,
2013-04-30 03:40:00,41.0,35.0,30.28,SW,225,0.0,0.0,79,0.00,,CLR,0.00,VWS V14.01,2013-04-30 07:40:00,
2013-04-30 03:50:00,41.0,35.9,30.28,SW,225,0.0,0.0,82,0.00,,CLR,0.00,VWS V14.01,2013-04-30 07:50:00,
2013-04-30 04:00:00,41.0,35.9,30.28,SW,225,0.0,0.0,82,0.00,,CLR,0.00,VWS V14.01,2013-04-30 08:00:00,
2013-04-30 04:10:00,40.0,35.0,30.29,SW,225,0.0,0.0,82,0.00,,CLR,0.00,VWS V14.01,2013-04-30 08:10:00,
2013-04-30 04:14:00,40.0,35.0,30.29,SW,225,0.0,0.0,82,0.00,,CLR,0.00,VWS V14.01,2013-04-30 08:14:00,
2013-04-30 04:15:00,40.0,35.0,30.29,SW,225,0.0,0.0,82,0.00,,CLR,0.00,VWS V14.01,2013-04-30 08:15:00,
2013-04-30 04:16:00,40.0,35.0,30.29,SW,225,0.0,0.0,82,0.00,,CLR,0.00,VWS V14.01,2013-04-30 08:16:00,
2013-04-30 04:17:00,40.0,35.0,30.29,SW,225,0.0,0.0,82,0.00,,CLR,0.00,VWS V14.01,2013-04-30 08:17:00,
2013-04-30 04:18:00,40.0,35.0,30.29,SW,225,0.0,0.0,82,0.00,,CLR,0.00,VWS V14.01,2013-04-30 08:18:00,
2013-04-30 04:19:00,40.0,35.0,30.29,SW,225,0.0,0.0,82,0.00,,CLR,0.00,VWS V14.01,2013-04-30 08:19:00,
2013-04-30 04:20:00,40.0,35.0,30.29,SW,225,0.0,0.0,82,0.00,,CLR,0.00,VWS V14.01,2013-04-30 08:20:00,
2013-04-30 04:21:00,40.0,35.0,30.29,SW,225,0.0,0.0,82,0.00,,CLR,0.00,VWS V14.01,2013-04-30 08:21:00,
2013-04-30 04:50:00,39.0,35.2,30.29,SW,225,0.0,1.0,86,0.00,,CLR,0.00,VWS V14.01,2013-04-30 08:50:00,
2013-04-30 05:00:00,39.0,35.2,30.30,SW,225,0.0,0.0,86,0.00,,CLR,0.00,VWS V14.01,2013-04-30 09:00:00,
2013-04-30 05:10:00,39.0,35.5,30.30,SW,225,0.0,0.0,87,0.00,,CLR,0.00,VWS V14.01,2013-04-30 09:10:00,
2013-04-30 05:16:00,40.0,35.0,30.29,SW,225,0.0,0.0,82,0.00,,CLR,0.00,VWS V14.01,2013-04-30 09:16:00,
2013-04-30 05:18:00,40.0,35.0,30.29,SW,225,0.0,0.0,82,0.00,,CLR,0.00,VWS V14.01,2013-04-30 09:18:00,
2013-04-30 05:19:00,40.0,35.0,30.29,SW,225,0.0,0.0,82,0.00,,CLR,0.00,VWS V14.01,2013-04-30 09:19:00,
2013-04-30 05:20:00,39.0,35.8,30.30,SW,225,0.0,0.0,88,0.00,,CLR,0.00,VWS V14.01,2013-04-30 09:20:00,
2013-04-30 05:21:00,40.0,35.0,30.29,SW,225,0.0,0.0,82,0.00,,CLR,0.00,VWS V14.01,2013-04-30 09:21:00,
2013-04-30 05:23:00,40.0,35.0,30.29,SW,225,0.0,0.0,82,0.00,,CLR,0.00,VWS V14.01,2013-04-30 09:23:00,
2013-04-30 05:25:00,40.0,35.3,30.29,SW,225,0.0,0.0,83,0.00,,CLR,0.00,VWS V14.01,2013-04-30 09:25:00,
2013-04-30 05:26:00,39.0,34.3,30.29,SW,225,0.0,0.0,83,0.00,,CLR,0.00,VWS V14.01,2013-04-30 09:26:00,
2013-04-30 05:28:00,40.0,35.0,30.29,SW,225,0.0,0.0,82,0.00,,CLR,0.00,VWS V14.01,2013-04-30 09:28:00,
2013-04-30 05:30:00,39.0,34.3,30.29,SW,225,0.0,0.0,83,0.00,,CLR,0.00,VWS V14.01,2013-04-30 09:30:00,
2013-04-30 05:31:00,39.0,34.6,30.29,SW,225,0.0,0.0,84,0.00,,CLR,0.00,VWS V14.01,2013-04-30 09:31:00,
2013-04-30 05:32:00,40.0,35.6,30.29,SW,225,0.0,0.0,84,0.00,,CLR,0.00,VWS V14.01,2013-04-30 09:32:00,
2013-04-30 05:33:00,39.0,34.6,30.29,SW,225,0.0,0.0,84,0.00,,CLR,0.00,VWS V14.01,2013-04-30 09:33:00,
2013-04-30 05:35:00,39.0,34.6,30.29,SW,225,0.0,0.0,84,0.00,,CLR,0.00,VWS V14.01,2013-04-30 09:35:00,
2013-04-30 05:37:00,39.0,34.6,30.29,SW,225,0.0,0.0,84,0.00,,CLR,0.00,VWS V14.01,2013-04-30 09:37:00,
2013-04-30 05:38:00,39.0,34.9,30.29,SW,225,0.0,0.0,85,0.00,,CLR,0.00,VWS V14.01,2013-04-30 09:38:00,
2013-04-30 05:40:00,39.0,34.9,30.29,SW,225,0.0,0.0,85,0.00,,CLR,0.00,VWS V14.01,2013-04-30 09:40:00,
2013-04-30 05:42:00,39.0,34.9,30.29,SW,225,0.0,0.0,85,0.00,,CLR,0.00,VWS V14.01,2013-04-30 09:42:00,
2013-04-30 05:43:00,39.0,34.9,30.29,SW,225,0.0,0.0,85,0.00,,CLR,0.00,VWS V14.01,2013-04-30 09:43:00,
2013-04-30 05:45:00,39.0,35.2,30.29,SW,225,0.0,0.0,86,0.00,,CLR,0.00,VWS V14.01,2013-04-30 09:45:00,
2013-04-30 05:50:00,40.0,36.7,30.31,SW,225,0.0,0.0,88,0.00,,CLR,0.00,VWS V14.01,2013-04-30 09:50:00,
2013-04-30 06:00:00,41.0,37.7,30.32,SW,225,0.0,0.0,88,0.00,,CLR,0.00,VWS V14.01,2013-04-30 10:00:00,
2013-04-30 06:10:00,43.0,38.2,30.32,SW,225,0.0,0.0,83,0.00,,CLR,0.00,VWS V14.01,2013-04-30 10:10:00,
2013-04-30 06:20:00,44.0,37.6,30.33,SW,225,0.0,0.0,78,0.00,,CLR,0.00,VWS V14.01,2013-04-30 10:20:00,
2013-04-30 06:30:00,47.0,37.0,30.33,SW,225,0.0,0.0,68,0.00,,CLR,0.00,VWS V14.01,2013-04-30 10:30:00,
2013-04-30 06:40:00,49.0,36.6,30.34,SW,225,0.0,0.0,62,0.00,,CLR,0.00,VWS V14.01,2013-04-30 10:40:00,
2013-04-30 06:50:00,51.0,36.8,30.35,SSW,202,0.0,0.0,58,0.00,,CLR,0.00,VWS V14.01,2013-04-30 10:50:00,
2013-04-30 07:00:00,53.0,35.4,30.35,WSW,247,0.0,0.0,51,0.00,,CLR,0.00,VWS V14.01,2013-04-30 11:00:00,
2013-04-30 07:10:00,55.0,36.2,30.36,SSW,202,0.0,0.0,49,0.00,,CLR,0.00,VWS V14.01,2013-04-30 11:10:00,
2013-04-30 07:20:00,56.0,35.5,30.37,SSW,202,1.0,1.0,46,0.00,,CLR,0.00,VWS V14.01,2013-04-30 11:20:00,
2013-04-30 07:30:00,58.0,33.8,30.37,WSW,247,1.0,1.0,40,0.00,,CLR,0.00,VWS V14.01,2013-04-30 11:30:00,
2013-04-30 07:40:00,59.0,32.8,30.38,WSW,247,0.0,1.0,37,0.00,,CLR,0.00,VWS V14.01,2013-04-30 11:40:00,
2013-04-30 07:50:00,60.0,33.7,30.38,SW,225,1.0,1.0,37,0.00,,CLR,0.00,VWS V14.01,2013-04-30 11:50:00,
2013-04-30 08:00:00,61.0,31.7,30.38,SSE,157,1.0,1.0,33,0.00,,CLR,0.00,VWS V14.01,2013-04-30 12:00:00,
2013-04-30 08:10:00,62.0,31.0,30.38,SSW,202,0.0,1.0,31,0.00,,CLR,0.00,VWS V14.01,2013-04-30 12:10:00,
2013-04-30 08:20:00,63.0,28.5,30.38,SSW,202,1.0,1.0,27,0.00,,CLR,0.00,VWS V14.01,2013-04-30 12:20:00,
2013-04-30 08:30:00,62.0,26.8,30.39,West,270,1.0,1.0,26,0.00,,CLR,0.00,VWS V14.01,2013-04-30 12:30:00,
2013-04-30 08:40:00,64.0,27.5,30.39,SE,135,1.0,1.0,25,0.00,,CLR,0.00,VWS V14.01,2013-04-30 12:40:00,
2013-04-30 08:50:00,64.0,26.5,30.39,North,360,2.0,2.0,24,0.00,,CLR,0.00,VWS V14.01,2013-04-30 12:50:00,
2013-04-30 09:00:00,65.0,25.3,30.39,SE,135,1.0,2.0,22,0.00,,CLR,0.00,VWS V14.01,2013-04-30 13:00:00,
2013-04-30 09:10:00,65.0,26.3,30.39,East,90,1.0,1.0,23,0.00,,CLR,0.00,VWS V14.01,2013-04-30 13:10:00,
2013-04-30 09:20:00,66.0,29.2,30.39,SSE,157,1.0,1.0,25,0.00,,CLR,0.00,VWS V14.01,2013-04-30 13:20:00,
2013-04-30 09:30:00,66.0,26.1,30.39,SE,135,1.0,1.0,22,0.00,,CLR,0.00,VWS V14.01,2013-04-30 13:30:00,
2013-04-30 09:40:00,65.0,25.3,30.39,ESE,112,2.0,2.0,22,0.00,,CLR,0.00,VWS V14.01,2013-04-30 13:40:00,
2013-04-30 09:50:00,66.0,27.2,30.39,West,270,1.0,2.0,23,0.00,,CLR,0.00,VWS V14.01,2013-04-30 13:50:00,
2013-04-30 10:00:00,67.0,26.9,30.39,South,180,1.0,1.0,22,0.00,,CLR,0.00,VWS V14.01,2013-04-30 14:00:00,
2013-04-30 10:10:00,67.0,26.9,30.39,WSW,247,1.0,1.0,22,0.00,,CLR,0.00,VWS V14.01,2013-04-30 14:10:00,
2013-04-30 10:20:00,68.0,28.9,30.38,ENE,67,1.0,1.0,23,0.00,,CLR,0.00,VWS V14.01,2013-04-30 14:20:00,
2013-04-30 10:30:00,67.0,30.0,30.39,SSW,202,2.0,2.0,25,0.00,,CLR,0.00,VWS V14.01,2013-04-30 14:30:00,
2013-04-30 10:40:00,68.0,29.9,30.38,NE,45,1.0,2.0,24,0.00,,CLR,0.00,VWS V14.01,2013-04-30 14:40:00,
2013-04-30 10:50:00,69.0,29.7,30.38,SW,225,1.0,1.0,23,0.00,,CLR,0.00,VWS V14.01,2013-04-30 14:50:00,
2013-04-30 11:00:00,69.0,29.7,30.38,ESE,112,2.0,2.0,23,0.00,,CLR,0.00,VWS V14.01,2013-04-30 15:00:00,
2013-04-30 11:10:00,69.0,29.7,30.38,SW,225,1.0,2.0,23,0.00,,CLR,0.00,VWS V14.01,2013-04-30 15:10:00,
2013-04-30 11:20:00,68.0,28.9,30.37,SSW,202,2.0,2.0,23,0.00,,CLR,0.00,VWS V14.01,2013-04-30 15:20:00,
2013-04-30 11:30:00,68.0,27.8,30.37,East,90,2.0,2.0,22,0.00,,CLR,0.00,VWS V14.01,2013-04-30 15:30:00,
2013-04-30 11:40:00,69.0,28.6,30.37,ESE,112,1.0,2.0,22,0.00,,CLR,0.00,VWS V14.01,2013-04-30 15:40:00,
2013-04-30 11:50:00,70.0,29.4,30.37,South,180,1.0,1.0,22,0.00,,CLR,0.00,VWS V14.01,2013-04-30 15:50:00,
2013-04-30 12:00:00,68.0,28.9,30.37,SE,135,2.0,2.0,23,0.00,,CLR,0.00,VWS V14.01,2013-04-30 16:00:00,
2013-04-30 12:10:00,69.0,29.7,30.37,SSW,202,1.0,2.0,23,0.00,,CLR,0.00,VWS V14.01,2013-04-30 16:10:00,
2013-04-30 12:20:00,69.0,30.7,30.37,East,90,2.0,2.0,24,0.00,,CLR,0.00,VWS V14.01,2013-04-30 16:20:00,
2013-04-30 12:30:00,68.0,30.9,30.37,WSW,247,2.0,2.0,25,0.00,,CLR,0.00,VWS V14.01,2013-04-30 16:30:00,
2013-04-30 12:40:00,69.0,31.8,30.37,WSW,247,2.0,2.0,25,0.00,,CLR,0.00,VWS V14.01,2013-04-30 16:40:00,
2013-04-30 12:50:00,69.0,29.7,30.37,ENE,67,2.0,2.0,23,0.00,,CLR,0.00,VWS V14.01,2013-04-30 16:50:00,
2013-04-30 13:00:00,68.0,28.9,30.37,ESE,112,3.0,3.0,23,0.00,,CLR,0.00,VWS V14.01,2013-04-30 17:00:00,
2013-04-30 13:10:00,69.0,29.7,30.38,NW,315,1.0,3.0,23,0.00,,CLR,0.00,VWS V14.01,2013-04-30 17:10:00,
2013-04-30 13:20:00,68.0,27.8,30.38,ESE,112,2.0,2.0,22,0.00,,CLR,0.00,VWS V14.01,2013-04-30 17:20:00,
2013-04-30 13:30:00,70.0,29.4,30.38,South,180,2.0,2.0,22,0.00,,CLR,0.00,VWS V14.01,2013-04-30 17:30:00,
2013-04-30 13:40:00,71.0,30.3,30.38,South,180,1.0,2.0,22,0.00,,CLR,0.00,VWS V14.01,2013-04-30 17:40:00,
2013-04-30 13:50:00,70.0,30.5,30.38,ESE,112,1.0,1.0,23,0.00,,CLR,0.00,VWS V14.01,2013-04-30 17:50:00,
2013-04-30 14:00:00,70.0,31.6,30.38,East,90,2.0,2.0,24,0.00,,CLR,0.00,VWS V14.01,2013-04-30 18:00:00,
2013-04-30 14:10:00,68.0,29.9,30.38,WNW,292,2.0,2.0,24,0.00,,CLR,0.00,VWS V14.01,2013-04-30 18:10:00,
2013-04-30 14:20:00,68.0,30.9,30.37,ENE,67,2.0,2.0,25,0.00,,CLR,0.00,VWS V14.01,2013-04-30 18:20:00,
2013-04-30 14:30:00,69.0,30.7,30.37,SE,135,1.0,2.0,24,0.00,,CLR,0.00,VWS V14.01,2013-04-30 18:30:00,
2013-04-30 14:40:00,67.0,30.0,30.37,ESE,112,2.0,2.0,25,0.00,,CLR,0.00,VWS V14.01,2013-04-30 18:40:00,
2013-04-30 14:50:00,68.0,30.9,30.37,ESE,112,2.0,2.0,25,0.00,,CLR,0.00,VWS V14.01,2013-04-30 18:50:00,
2013-04-30 15:00:00,67.0,30.0,30.37,ESE,112,3.0,3.0,25,0.00,,CLR,0.00,VWS V14.01,2013-04-30 19:00:00,
2013-04-30 15:10:00,67.0,30.0,30.37,SE,135,2.0,3.0,25,0.00,,CLR,0.00,VWS V14.01,2013-04-30 19:10:00,
2013-04-30 15:20:00,70.0,32.6,30.37,ESE,112,1.0,2.0,25,0.00,,CLR,0.00,VWS V14.01,2013-04-30 19:20:00,
2013-04-30 15:30:00,68.0,30.9,30.37,ESE,112,2.0,2.0,25,0.00,,CLR,0.00,VWS V14.01,2013-04-30 19:30:00,
2013-04-30 15:40:00,68.0,30.9,30.37,ESE,112,1.0,2.0,25,0.00,,CLR,0.00,VWS V14.01,2013-04-30 19:40:00,
2013-04-30 15:50:00,67.0,30.0,30.37,ESE,112,2.0,2.0,25,0.00,,CLR,0.00,VWS V14.01,2013-04-30 19:50:00,
2013-04-30 16:00:00,68.0,30.9,30.38,ESE,112,1.0,2.0,25,0.00,,CLR,0.00,VWS V14.01,2013-04-30 20:00:00,
2013-04-30 16:10:00,67.0,30.0,30.38,East,90,2.0,2.0,25,0.00,,CLR,0.00,VWS V14.01,2013-04-30 20:10:00,
2013-04-30 16:20:00,66.0,29.2,30.38,East,90,2.0,2.0,25,0.00,,CLR,0.00,VWS V14.01,2013-04-30 20:20:00,
2013-04-30 16:30:00,65.0,29.3,30.38,ESE,112,2.0,2.0,26,0.00,,CLR,0.00,VWS V14.01,2013-04-30 20:30:00,
2013-04-30 16:40:00,65.0,29.3,30.38,ESE,112,2.0,2.0,26,0.00,,CLR,0.00,VWS V14.01,2013-04-30 20:40:00,
2013-04-30 16:50:00,67.0,30.0,30.38,ESE,112,1.0,2.0,25,0.00,,CLR,0.00,VWS V14.01,2013-04-30 20:50:00,
2013-04-30 17:00:00,66.0,29.2,30.39,ESE,112,1.0,1.0,25,0.00,,CLR,0.00,VWS V14.01,2013-04-30 21:00:00,
2013-04-30 17:10:00,66.0,28.2,30.39,ESE,112,1.0,1.0,24,0.00,,CLR,0.00,VWS V14.01,2013-04-30 21:10:00,
2013-04-30 17:20:00,67.0,26.9,30.38,ESE,112,0.0,1.0,22,0.00,,CLR,0.00,VWS V14.01,2013-04-30 21:20:00,
2013-04-30 17:30:00,66.0,28.2,30.38,ESE,112,1.0,1.0,24,0.00,,CLR,0.00,VWS V14.01,2013-04-30 21:30:00,
2013-04-30 17:40:00,64.0,25.5,30.38,ESE,112,1.0,1.0,23,0.00,,CLR,0.00,VWS V14.01,2013-04-30 21:40:00,
2013-04-30 17:50:00,64.0,26.5,30.38,ESE,112,0.0,1.0,24,0.00,,CLR,0.00,VWS V14.01,2013-04-30 21:50:00,
2013-04-30 18:00:00,63.0,25.7,30.38,East,90,0.0,0.0,24,0.00,,CLR,0.00,VWS V14.01,2013-04-30 22:00:00,
2013-04-30 18:10:00,62.0,25.8,30.38,East,90,0.0,0.0,25,0.00,,CLR,0.00,VWS V14.01,2013-04-30 22:10:00,
2013-04-30 18:20:00,61.0,25.9,30.38,East,90,0.0,0.0,26,0.00,,CLR,0.00,VWS V14.01,2013-04-30 22:20:00,
2013-04-30 18:30:00,60.0,24.1,30.38,East,90,0.0,0.0,25,0.00,,CLR,0.00,VWS V14.01,2013-04-30 22:30:00,
2013-04-30 18:40:00,60.0,25.0,30.38,East,90,0.0,0.0,26,0.00,,CLR,0.00,VWS V14.01,2013-04-30 22:40:00,
2013-04-30 18:50:00,59.0,24.2,30.38,ESE,112,0.0,0.0,26,0.00,,CLR,0.00,VWS V14.01,2013-04-30 22:50:00,
2013-04-30 19:00:00,58.0,22.4,30.38,ESE,112,0.0,0.0,25,0.00,,CLR,0.00,VWS V14.01,2013-04-30 23:00:00,
2013-04-30 19:10:00,57.0,21.5,30.38,ESE,112,0.0,0.0,25,0.00,,CLR,0.00,VWS V14.01,2013-04-30 23:10:00,
2013-04-30 19:20:00,56.0,21.6,30.38,ESE,112,0.0,0.0,26,0.00,,CLR,0.00,VWS V14.01,2013-04-30 23:20:00,
2013-04-30 19:28:00,56.0,23.4,30.39,ESE,112,0.0,0.0,28,0.00,,CLR,0.00,VWS V14.01,2013-04-30 23:28:00,
2013-04-30 19:29:00,56.0,23.4,30.39,ESE,112,0.0,0.0,28,0.00,,CLR,0.00,VWS V14.01,2013-04-30 23:29:00,
2013-04-30 19:30:00,55.0,22.5,30.39,ESE,112,0.0,0.0,28,0.00,,CLR,0.00,VWS V14.01,2013-04-30 23:30:00,
2013-04-30 19:31:00,55.0,23.4,30.39,ESE,112,0.0,0.0,29,0.00,,CLR,0.00,VWS V14.01,2013-04-30 23:31:00,
2013-04-30 19:32:00,55.0,23.4,30.39,ESE,112,0.0,0.0,29,0.00,,CLR,0.00,VWS V14.01,2013-04-30 23:32:00,
2013-04-30 19:33:00,55.0,23.4,30.39,ESE,112,0.0,0.0,29,0.00,,CLR,0.00,VWS V14.01,2013-04-30 23:33:00,
2013-04-30 19:34:00,55.0,23.4,30.39,ESE,112,0.0,0.0,29,0.00,,CLR,0.00,VWS V14.01,2013-04-30 23:34:00,
2013-04-30 20:10:00,53.0,23.2,30.39,ENE,67,0.0,1.0,31,0.00,,CLR,0.00,VWS V14.01,2013-05-01 00:10:00,
2013-04-30 20:20:00,52.0,23.1,30.39,ENE,67,0.0,0.0,32,0.00,,CLR,0.00,VWS V14.01,2013-05-01 00:20:00,
2013-04-30 20:26:00,56.0,21.6,30.38,ESE,112,0.0,0.0,26,0.00,,CLR,0.00,VWS V14.01,2013-05-01 00:26:00,
2013-04-30 20:30:00,55.0,23.4,30.39,ESE,112,0.0,0.0,29,0.00,,CLR,0.00,VWS V14.01,2013-05-01 00:30:00,
2013-04-30 20:31:00,55.0,23.4,30.39,ESE,112,0.0,0.0,29,0.00,,CLR,0.00,VWS V14.01,2013-05-01 00:31:00,
2013-04-30 20:32:00,55.0,23.4,30.39,ESE,112,0.0,0.0,29,0.00,,CLR,0.00,VWS V14.01,2013-05-01 00:32:00,
2013-04-30 20:35:00,55.0,23.4,30.39,ESE,112,0.0,0.0,29,0.00,,CLR,0.00,VWS V14.01,2013-05-01 00:35:00,
2013-04-30 20:37:00,55.0,24.2,30.39,ESE,112,0.0,0.0,30,0.00,,CLR,0.00,VWS V14.01,2013-05-01 00:37:00,
2013-04-30 20:38:00,55.0,24.2,30.39,ESE,112,0.0,0.0,30,0.00,,CLR,0.00,VWS V14.01,2013-05-01 00:38:00,
2013-04-30 20:40:00,54.0,23.3,30.39,ESE,112,0.0,2.0,30,0.00,,CLR,0.00,VWS V14.01,2013-05-01 00:40:00,
2013-04-30 20:42:00,54.0,24.1,30.39,ESE,112,0.0,2.0,31,0.00,,CLR,0.00,VWS V14.01,2013-05-01 00:42:00,
2013-04-30 20:43:00,54.0,24.1,30.39,ESE,112,0.0,2.0,31,0.00,,CLR,0.00,VWS V14.01,2013-05-01 00:43:00,
2013-04-30 20:45:00,54.0,24.8,30.39,ESE,112,0.0,2.0,32,0.00,,CLR,0.00,VWS V14.01,2013-05-01 00:45:00,
2013-04-30 20:47:00,54.0,24.8,30.39,ESE,112,0.0,2.0,32,0.00,,CLR,0.00,VWS V14.01,2013-05-01 00:47:00,
2013-04-30 20:48:00,54.0,24.8,30.39,ESE,112,0.0,2.0,32,0.00,,CLR,0.00,VWS V14.01,2013-05-01 00:48:00,
2013-04-30 20:50:00,50.0,24.1,30.39,NE,45,0.0,0.0,36,0.00,,CLR,0.00,VWS V14.01,2013-05-01 00:50:00,
2013-04-30 20:51:00,54.0,24.8,30.39,ENE,67,0.0,1.0,32,0.00,,CLR,0.00,VWS V14.01,2013-05-01 00:51:00,
2013-04-30 20:52:00,54.0,24.8,30.39,ENE,67,0.0,1.0,32,0.00,,CLR,0.00,VWS V14.01,2013-05-01 00:52:00,
2013-04-30 20:53:00,54.0,24.8,30.39,ENE,67,0.0,1.0,32,0.00,,CLR,0.00,VWS V14.01,2013-05-01 00:53:00,
2013-04-30 20:56:00,54.0,24.1,30.39,ENE,67,0.0,2.0,31,0.00,,CLR,0.00,VWS V14.01,2013-05-01 00:56:00,
2013-04-30 20:57:00,54.0,24.1,30.39,ENE,67,0.0,2.0,31,0.00,,CLR,0.00,VWS V14.01,2013-05-01 00:57:00,
2013-04-30 20:58:00,54.0,24.1,30.39,ENE,67,0.0,2.0,31,0.00,,CLR,0.00,VWS V14.01,2013-05-01 00:58:00,
2013-04-30 21:00:00,49.0,24.5,30.39,NE,45,0.0,0.0,38,0.00,,CLR,0.00,VWS V14.01,2013-05-01 01:00:00,
2013-04-30 21:01:00,54.0,24.1,30.39,ENE,67,0.0,1.0,31,0.00,,CLR,0.00,VWS V14.01,2013-05-01 01:01:00,
2013-04-30 21:02:00,54.0,23.3,30.39,ENE,67,0.0,1.0,30,0.00,,CLR,0.00,VWS V14.01,2013-05-01 01:02:00,
2013-04-30 21:03:00,53.0,23.2,30.39,ENE,67,0.0,1.0,31,0.00,,CLR,0.00,VWS V14.01,2013-05-01 01:03:00,
2013-04-30 21:10:00,48.0,28.2,30.38,NE,45,0.0,0.0,46,0.00,,CLR,0.00,VWS V14.01,2013-05-01 01:10:00,
2013-04-30 21:20:00,47.0,26.2,30.38,NE,45,0.0,0.0,44,0.00,,CLR,0.00,VWS V14.01,2013-05-01 01:20:00,
2013-04-30 21:30:00,47.0,28.3,30.39,NE,45,0.0,0.0,48,0.00,,CLR,0.00,VWS V14.01,2013-05-01 01:30:00,
2013-04-30 21:40:00,46.0,25.3,30.39,NE,45,0.0,0.0,44,0.00,,CLR,0.00,VWS V14.01,2013-05-01 01:40:00,
2013-04-30 21:50:00,46.0,26.9,30.39,NE,45,0.0,0.0,47,0.00,,CLR,0.00,VWS V14.01,2013-05-01 01:50:00,
2013-04-30 22:00:00,45.0,27.0,30.39,NE,45,0.0,0.0,49,0.00,,CLR,0.00,VWS V14.01,2013-05-01 02:00:00,
2013-04-30 22:10:00,45.0,26.0,30.39,NE,45,0.0,0.0,47,0.00,,CLR,0.00,VWS V14.01,2013-05-01 02:10:00,
2013-04-30 22:20:00,44.0,28.4,30.39,NE,45,0.0,0.0,54,0.00,,CLR,0.00,VWS V14.01,2013-05-01 02:20:00,
2013-04-30 22:30:00,43.0,28.0,30.39,NE,45,0.0,0.0,55,0.00,,CLR,0.00,VWS V14.01,2013-05-01 02:30:00,
2013-04-30 22:40:00,43.0,30.1,30.40,NE,45,0.0,0.0,60,0.00,,CLR,0.00,VWS V14.01,2013-05-01 02:40:00,
2013-04-30 22:50:00,42.0,29.1,30.40,NE,45,0.0,0.0,60,0.00,,CLR,0.00,VWS V14.01,2013-05-01 02:50:00,
2013-04-30 23:00:00,42.0,30.3,30.40,NE,45,0.0,0.0,63,0.00,,CLR,0.00,VWS V14.01,2013-05-01 03:00:00,
2013-04-30 23:10:00,42.0,30.3,30.40,NE,45,0.0,0.0,63,0.00,,CLR,0.00,VWS V14.01,2013-05-01 03:10:00,
2013-04-30 23:20:00,41.0,29.4,30.39,NE,45,0.0,0.0,63,0.00,,CLR,0.00,VWS V14.01,2013-05-01 03:20:00,
2013-04-30 23:30:00,41.0,30.1,30.39,NE,45,0.0,0.0,65,0.00,,CLR,0.00,VWS V14.01,2013-05-01 03:30:00,
2013-04-30 23:40:00,40.0,29.9,30.39,NE,45,0.0,0.0,67,0.00,,CLR,0.00,VWS V14.01,2013-05-01 03:40:00,
2013-04-30 23:50:00,40.0,30.3,30.39,NE,45,0.0,0.0,68,0.00,,CLR,0.00,VWS V14.01,2013-05-01 03:50:00,